Weather History for King Salmon, AK

Change the Weather History Date:

Tuesday, September 24, 2013

  Actual Average Record
Temperature  
Mean Temperature 40 °F 44 °F  
Max Temperature 56 °F 52 °F 67 °F (1929)
Min Temperature 24 °F 36 °F 17 °F (1992)
Degree Days  
Heating Degree Days 25 21  
Month to date heating degree days 399 388  
Since 1 July heating degree days 902 1000  
Cooling Degree Days 0    
Month to date cooling degree days 0  
Year to date cooling degree days 4  
Moisture  
Dew Point 34 °F    
Average Humidity 0    
Maximum Humidity 0    
Minimum Humidity 0    
Precipitation  
Precipitation 0.03 in 0.10 in 0.79 in (1996)
Month to date precipitation 1.05 2.59  
Year to date precipitation 15.14 14.19  
Snow  
Snow 0.00 in 0.00 in T in (2004)
Month to date snowfall 0.0 0.0  
Since 1 July snowfall 0.0 0.0  
Since 1 September snowfall 0.0 0.0  
Snow Depth 0.00 in    
Sea Level Pressure  
Sea Level Pressure 29.65 in    
Wind  
Wind Speed 11 mph (East)    
Max Wind Speed 33 mph    
Max Gust Speed 41 mph    
Visibility 10 miles    
Events Rain    
T = Trace of Precipitation, MM = Missing Value Source: NWS Daily Summary

Daily Weather History Graph

Daily Weather History Graph

Search for Another Location

Airport:

Trip Planner

Search our weather history database for the weather conditions in past years. The results will help you decide how hot, cold, wet, or windy it might be!

Date:

Astronomy

Sep. 24, 2013 Rise Set
Actual Time 8:16 AM AKDT 8:18 PM AKDT
Civil Twilight 7:36 AM AKDT 8:58 PM AKDT
Nautical Twilight 6:49 AM AKDT 9:46 PM AKDT
Astronomical Twilight 5:58 AM AKDT 10:36 PM AKDT
Moon 10:32 PM AKDT (9/24) 2:53 PM AKDT (9/24)
Length of Visible Light 13h 21m
Length of Day
12h 02m
Waning Gibbous, 72% of the Moon is Illuminated
Sep 24
Waning Gibbous
Sep 26
Last Quarter
Oct 4
New
Oct 11
First Quarter
Oct 18
Full

Hourly Weather History & Observations

Time (AKDT) Temp. Windchill Dew Point Humidity Pressure Visibility Wind Dir Wind Speed Gust Speed Precip Events Conditions
12:54 AM 25.0 °F 17.1 °F 24.1 °F 96% 29.85 in 10.0 mi ENE 6.9 mph - N/A   Clear
1:54 AM 26.1 °F 18.4 °F 23.0 °F 88% 29.85 in 10.0 mi NE 6.9 mph - N/A   Clear
2:54 AM 25.0 °F 19.3 °F 23.0 °F 92% 29.85 in 10.0 mi NE 4.6 mph - N/A   Clear
3:54 AM 25.0 °F 20.7 °F 21.9 °F 88% 29.84 in 10.0 mi NNE 3.5 mph - N/A   Clear
4:54 AM 26.1 °F 19.4 °F 24.1 °F 92% 29.83 in 10.0 mi NE 5.8 mph - N/A   Clear
5:54 AM 30.9 °F 24.3 °F 27.0 °F 85% 29.80 in 10.0 mi NE 6.9 mph - N/A   Clear
6:54 AM 32.0 °F 26.4 °F 28.0 °F 85% 29.77 in 10.0 mi ENE 5.8 mph - N/A   Clear
7:54 AM 32.0 °F 27.5 °F 27.0 °F 82% 29.75 in 10.0 mi NNE 4.6 mph - N/A   Mostly Cloudy
8:54 AM 36.0 °F 33.3 °F 30.9 °F 82% 29.75 in 10.0 mi East 3.5 mph - N/A   Mostly Cloudy
9:54 AM 39.0 °F - 33.1 °F 79% 29.75 in 10.0 mi Calm Calm - N/A   Overcast
10:54 AM 39.9 °F 33.4 °F 33.1 °F 77% 29.70 in 10.0 mi East 10.4 mph - N/A   Overcast
11:54 AM 44.1 °F 37.7 °F 33.1 °F 65% 29.66 in 10.0 mi East 12.7 mph - 0.00 in   Overcast
12:54 PM 48.0 °F - 32.0 °F 54% 29.64 in 9.0 mi ESE 13.8 mph 20.7 mph N/A   Overcast
1:54 PM 51.1 °F - 34.0 °F 52% 29.61 in 10.0 mi ESE 11.5 mph - 0.00 in Rain Light Rain
2:54 PM 53.1 °F - 36.0 °F 52% 29.58 in 10.0 mi ESE 9.2 mph - 0.00 in   Overcast
3:54 PM 55.9 °F - 37.0 °F 49% 29.57 in 6.0 mi SSE 32.2 mph 35.7 mph N/A   Haze
4:03 PM 55.4 °F - 37.4 °F 51% 29.55 in 9.0 mi SSE 27.6 mph 41.4 mph N/A   Overcast
4:54 PM 54.0 °F - 37.9 °F 55% 29.54 in 10.0 mi SE 21.9 mph 31.1 mph N/A   Overcast
5:54 PM 53.1 °F - 39.0 °F 59% 29.52 in 10.0 mi SE 26.5 mph 38.0 mph N/A   Overcast
6:54 PM 53.1 °F - 39.9 °F 61% 29.49 in 10.0 mi SE 21.9 mph 31.1 mph N/A   Overcast
7:54 PM 52.0 °F - 43.0 °F 71% 29.49 in 8.0 mi SE 13.8 mph 21.9 mph 0.00 in Rain Light Rain
8:54 PM 48.9 °F - 45.0 °F 86% 29.48 in 8.0 mi SE 12.7 mph - 0.02 in Rain Light Rain
9:54 PM 50.0 °F - 46.0 °F 86% 29.45 in 10.0 mi SE 10.4 mph - 0.01 in   Overcast
10:54 PM 50.0 °F - 45.0 °F 83% 29.44 in 10.0 mi SE 10.4 mph - N/A   Overcast
11:54 PM 51.1 °F - 44.1 °F 77% 29.41 in 10.0 mi Variable 4.6 mph 19.6 mph N/A   Mostly Cloudy